FW4835 Weather Reports


Display with metric or nautical units.
time (UTC)temp
F
wind
direction
speed
MPH
gust
MPH
rain 1hr
in
rain 24hr
in
rain mn
in
humidity
%
barometer
mb
20260902083100 61 148 0.0 2.0 0.00 0.00 0.00 82 1006.8
20260902081558 61 159 0.0 3.0 0.00 0.00 0.00 83 1006.8
20260902080112 61 159 0.0 3.0 0.00 0.00 0.00 83 1006.9
20260902074555 61 67 0.0 3.0 0.00 0.00 0.00 83 1006.9
20260902073052 60 234 0.0 2.0 0.00 0.00 0.00 85 1007.1
20260902071547 59 312 0.0 1.0 0.00 0.00 0.00 89 1007.3
20260902070043 59 312 0.0 1.0 0.00 0.00 0.00 91 1007.3
20260902064556 59 312 0.0 1.0 0.00 0.00 0.00 91 1007.3
20260902063046 59 312 0.0 2.0 0.00 0.00 0.00 91 1007.3
20260902061552 59 312 0.0 1.0 0.00 0.00 0.00 91 1007.2
20260902060040 59 312 0.0 1.0 0.00 0.00 0.00 91 1007.5
20260902054540 59 312 0.0 0.0 0.00 0.00 0.00 91 1007.7
20260902053038 59 312 0.0 1.0 0.00 0.00 0.00 90 1007.8
20260902051539 60 312 0.0 0.0 0.00 0.00 0.00 90 1007.6
20260902050036 60 312 0.0 1.0 0.00 0.00 0.00 89 1007.6
20260902044536 60 312 0.0 0.0 0.00 0.00 0.00 89 1007.6
20260902043037 61 312 0.0 0.0 0.00 0.00 0.00 89 1007.6
20260902041533 61 312 0.0 1.0 0.00 0.00 0.00 88 1007.6
20260902040032 61 312 0.0 2.0 0.00 0.00 0.00 87 1007.7
20260902034532 61 312 0.0 1.0 0.00 0.00 0.00 87 1007.5
20260902033050 62 312 0.0 2.0 0.00 0.00 0.00 86 1007.3
20260902031530 62 312 0.0 1.0 0.00 0.00 0.00 86 1007.3
20260902030030 63 260 0.0 2.0 0.00 0.00 0.00 84 1007.2
20260902024529 63 243 0.0 2.0 0.00 0.00 0.00 83 1007.2
20260902023029 64 119 0.0 1.0 0.00 0.00 0.00 81 1007.2
20260902021528 65 119 0.0 2.0 0.00 0.00 0.00 79 1007.1
20260902020036 65 93 0.0 1.0 0.00 0.00 0.00 78 1007.0
20260902014532 65 93 0.0 3.0 0.00 0.00 0.00 78 1007.0
20260902013027 65 96 0.0 3.0 0.00 0.00 0.00 77 1007.0
20260902011526 65 99 0.0 2.0 0.00 0.00 0.00 77 1007.1
20260902010026 65 99 0.0 2.0 0.00 0.00 0.00 77 1007.1
20260902004526 66 99 0.0 2.0 0.00 0.00 0.00 77 1006.9
20260902003025 66 101 0.0 4.0 0.00 0.00 0.00 76 1006.8
20260902001524 67 344 1.0 5.0 0.00 0.00 0.00 74 1006.8
20260902000024 67 75 1.0 3.0 0.00 0.00 0.00 71 1006.8
20260901234523 67 96 0.0 2.0 0.00 0.00 0.00 74 1007.1
20260901233029 67 71 0.0 3.0 0.00 0.00 0.00 73 1007.1
20260901231520 66 76 0.0 2.0 0.00 0.00 0.00 74 1007.2
20260901230019 66 82 0.0 3.0 0.00 0.00 0.00 74 1007.3
20260901224532 66 88 0.0 1.0 0.00 0.00 0.00 74 1007.3
20260901223016 66 121 1.0 3.0 0.00 0.00 0.00 75 1007.3
20260901221515 65 130 0.0 2.0 0.00 0.00 0.00 77 1007.4
20260901220015 65 130 0.0 2.0 0.00 0.00 0.00 78 1007.3
20260901214515 65 130 0.0 2.0 0.00 0.00 0.00 77 1007.3
20260901213016 66 144 1.0 3.0 0.00 0.00 0.00 75 1007.3
20260901211521 65 283 0.0 2.0 0.00 0.00 0.00 78 1007.5
20260901210010 64 161 0.0 2.0 0.00 0.00 0.00 79 1007.5
20260901204509 64 91 0.0 2.0 0.00 0.00 0.00 78 1007.5
20260901203009 65 92 0.0 3.0 0.00 0.00 0.00 76 1007.6
20260901201506 65 115 1.0 2.0 0.00 0.00 0.00 78 1007.6
20260901200005 64 195 0.0 2.0 0.00 0.00 0.00 80 1007.7
20260901194508 64 62 1.0 3.0 0.00 0.00 0.00 81 1007.8
20260901193110 63 229 0.0 3.0 0.00 0.00 0.00 83 1007.9
20260901191601 62 75 1.0 3.0 0.00 0.00 0.00 86 1008.0
20260901190112 61 173 0.0 3.0 0.00 0.00 0.00 90 1008.1
20260901184555 60 119 0.0 4.0 0.00 0.00 0.00 90 1008.5
20260901183055 61 109 1.0 3.0 0.00 0.00 0.00 86 1008.2
20260901181559 61 171 0.0 3.0 0.00 0.00 0.00 86 1008.1
20260901180053 61 186 0.0 4.0 0.00 0.00 0.00 87 1008.3
20260901174551 61 100 0.0 2.0 0.00 0.00 0.00 88 1008.3
20260901173059 61 100 0.0 3.0 0.00 0.00 0.00 86 1008.0
20260901171559 61 71 1.0 2.0 0.00 0.00 0.00 87 1008.1
20260901170049 60 115 0.0 2.0 0.00 0.00 0.00 89 1008.0
20260901164552 60 115 0.0 3.0 0.00 0.00 0.00 90 1007.9
20260901163043 60 318 0.0 1.0 0.00 0.00 0.00 90 1007.9
20260901161544 59 318 0.0 1.0 0.00 0.00 0.00 91 1007.9
20260901160039 59 317 0.0 1.0 0.00 0.00 0.00 92 1008.1
20260901154538 58 317 0.0 2.0 0.00 0.00 0.00 92 1008.1
20260901153036 58 331 0.0 1.0 0.00 0.00 0.00 93 1008.1
20260901151541 58 331 0.0 1.0 0.00 0.00 0.00 93 1008.2
20260901150032 58 331 0.0 1.0 0.00 0.00 0.00 94 1008.1
20260901144529 58 331 0.0 1.0 0.00 0.00 0.00 94 1007.9
20260901143029 58 331 0.0 1.0 0.00 0.00 0.00 94 1007.9
20260901141524 58 331 0.0 0.0 0.00 0.00 0.00 93 1007.8
20260901140024 58 331 0.0 1.0 0.00 0.00 0.00 93 1007.7
20260901134531 58 331 0.0 0.0 0.00 0.00 0.00 92 1007.6
20260901133025 58 331 0.0 1.0 0.00 0.00 0.00 92 1007.6
20260901131517 59 339 0.0 0.0 0.00 0.00 0.00 91 1007.6
20260901130016 59 339 0.0 1.0 0.00 0.00 0.00 90 1007.4
20260901124515 59 339 0.0 0.0 0.00 0.00 0.00 90 1007.2
20260901123024 59 339 0.0 0.0 0.00 0.00 0.00 89 1007.1
20260901121513 59 339 0.0 0.0 0.00 0.00 0.00 88 1007.3
20260901120011 59 339 0.0 1.0 0.00 0.00 0.00 89 1007.3
20260901114510 59 339 0.0 1.0 0.00 0.00 0.00 89 1007.2
20260901113009 59 339 0.0 0.0 0.00 0.00 0.00 89 1007.1
20260901111508 59 339 0.0 1.0 0.00 0.00 0.00 89 1007.1
20260901110007 59 339 0.0 1.0 0.00 0.00 0.00 89 1007.0
20260901104506 58 339 0.0 1.0 0.00 0.00 0.00 90 1007.0
20260901103004 58 339 0.0 1.0 0.00 0.00 0.00 90 1006.9
20260901101506 58 339 0.0 1.0 0.00 0.00 0.00 89 1006.8
20260901100110 58 339 0.0 2.0 0.00 0.00 0.00 89 1006.7
20260901094559 59 334 0.0 2.0 0.00 0.00 0.00 88 1006.6
20260901093104 59 344 0.0 2.0 0.00 0.00 0.00 88 1006.6
20260901091602 60 345 0.0 3.0 0.00 0.00 0.00 88 1006.3
20260901090051 60 355 0.0 3.0 0.00 0.00 0.00 88 1006.2
20260901084549 60 19 0.0 2.0 0.00 0.00 0.00 87 1006.2